QPF
0.00 0.00 0.00 0.00 0.00 0.00 0.00 0.00 0.00 0.00 0.00 0.00 0.00 0.00 0.00 0.00 0.00 0.00 0.00 0.00 0.00 0.00 0.00 0.00 0.00 0.00 0.00 0.00 0.00 0.00 0.00 0.00 0.00 0.00 0.00 0.00 0.00 0.00 0.00 0.00 0.00 0.00 0.00 0.00 0.00
0.00 0.00 0.00 0.00 0.00 0.00 0.00 0.00 0.00 0.00 0.00 0.00 0.00 0.00 0.00 0.00 0.00 0.00 0.00 0.00 0.00 0.00 0.00 0.00 0.00 0.00 0.00 0.00 0.00 0.00 0.00 0.00 0.00 0.00 0.00 0.00 0.00 0.00 0.00 0.00 0.00 0.00 0.00 0.00 0.00
0.00 0.00 0.00 0.00 0.00 0.00 0.00 0.00 0.00 0.00 0.00 0.00 0.00 0.00 0.00 0.00 0.00 0.00 0.00 0.00 0.00 0.00 0.00 0.00 0.00 0.00 0.00 0.00 0.00 0.00 0.00 0.00 0.00 0.00 0.00 0.00 0.00 0.00 0.00 0.00 0.00 0.00 0.00 0.00 0.00
0.00 0.00 0.00 0.00 0.00 0.00 0.00 0.00 0.00 0.00 0.00 0.00 0.00 0.00 0.00 0.00 0.00 0.00 0.00 0.00 0.00 0.00 0.00 0.00 0.00 0.00 0.00 0.00 0.00 0.00 0.00 0.00 0.00 0.00 0.00 0.00 0.00 0.00 0.00 0.00 0.00 0.00 0.00 0.00 0.00
0.00 0.00 0.00 0.00 0.00 0.00 0.00 0.00 0.00 0.00 0.00 0.00 0.00 0.00 0.00 0.00 0.00 0.00 0.00 0.00 0.00 0.00 0.00 0.00 0.00 0.00 0.00 0.00 0.00 0.00 0.00 0.00 0.00 0.00 0.00 0.00 0.00 0.00 0.00 0.00 0.00 0.00 0.00 0.00 0.00
0.00 0.00 0.00 0.00 0.00 0.00 0.00 0.00 0.00 0.00 0.00 0.00 0.00 0.00 0.00 0.00 0.00 0.00 0.00 0.00 0.00 0.00 0.00 0.00 0.00 0.00 0.00 0.00 0.00 0.00 0.00 0.00 0.00 0.00 0.00 0.00 0.00 0.00 0.00 0.00 0.00 0.00 0.00 0.00 0.00
0.00 0.00 0.00 0.00 0.00 0.00 0.00 0.00 0.00 0.00 0.00 0.00 0.00 0.00 0.00 0.00 0.00 0.00 0.00 0.00 0.00 0.00 0.00 0.00 0.00 0.00 0.00 0.00 0.00 0.00 0.00 0.00 0.00 0.00 0.00 0.00 0.00 0.00 0.00 0.00 0.00 0.00 0.00 0.00 0.00
0.00 0.00 0.00 0.00 0.00 0.00 0.00 0.00 0.00 0.00 0.00 0.00 0.00 0.00 0.00 0.00 0.00 0.00 0.00 0.00 0.00 0.00 0.00 0.00 0.00 0.00 0.00 0.00 0.00 0.00 0.00 0.00 0.00 0.00 0.00 0.00 0.00 0.00 0.00 0.00 0.00 0.00 0.00 0.00 0.00
0.00 0.00 0.00 0.00 0.00 0.00 0.00 0.00 0.00 0.00 0.00 0.00 0.00 0.00 0.00 0.00 0.00 0.00 0.00 0.00 0.00 0.00 0.00 0.00 0.00 0.00 0.00 0.00 0.00 0.00 0.00 0.00 0.00 0.00 0.00 0.00 0.00 0.00 0.00 0.00 0.00 0.00 0.00 0.00 0.00
0.00 0.00 0.00 0.00 0.00 0.00 0.00 0.00 0.00 0.00 0.00 0.00 0.00 0.00 0.00 0.00 0.00 0.00 0.00 0.00 0.00 0.00 0.00 0.00 0.00 0.00 0.00 0.00 0.00 0.00 0.00 0.00 0.00 0.00 0.00 0.00 0.00 0.00 0.00 0.00 0.00 0.00 0.00 0.00 0.00
0.00 0.00 0.00 0.00 0.00 0.00 0.00 0.00 0.00 0.00 0.00 0.00 0.00 0.00 0.00 0.00 0.00 0.00 0.00 0.00 0.00 0.00 0.00 0.00 0.00 0.00 0.00 0.00 0.00 0.00 0.00 0.00 0.00 0.00 0.00 0.00 0.00 0.00 0.00 0.00 0.00 0.00 0.00 0.00 0.00
0.00 0.00 0.00 0.00 0.00 0.00 0.00 0.00 0.00 0.00 0.00 0.00 0.00 0.00 0.00 0.00 0.00 0.00 0.00 0.00 0.00 0.00 0.00 0.00 0.00 0.00 0.00 0.00 0.00 0.00 0.00 0.00 0.00 0.00 0.00 0.00 0.00 0.00 0.00 0.00 0.00 0.00 0.00 0.00 0.00
0.00 0.00 0.00 0.00 0.00 0.00 0.00 0.00 0.00 0.00 0.00 0.00 0.00 0.00 0.00 0.00 0.00 0.00 0.00 0.00 0.00 0.00 0.00 0.00 0.00 0.00 0.00 0.00 0.00 0.00 0.00 0.00 0.00 0.00 0.00 0.00 0.00 0.00 0.00 0.00 0.00 0.00 0.00 0.00 0.00
0.00 0.00 0.00 0.00 0.00 0.00 0.00 0.00 0.00 0.00 0.00 0.00 0.00 0.00 0.00 0.00 0.00 0.00 0.00 0.00 0.00 0.00 0.00 0.00 0.00 0.00 0.00 0.00 0.00 0.00 0.00 0.00 0.00 0.00 0.00 0.00 0.00 0.00 0.00 0.00 0.00 0.00 0.00 0.00 0.00
0.00 0.00 0.00 0.00 0.00 0.00 0.00 0.00 0.00 0.00 0.00 0.00 0.00 0.00 0.00 0.00 0.00 0.00 0.00 0.00 0.00 0.00 0.00 0.00 0.00 0.00 0.00 0.00 0.00 0.00 0.00 0.00 0.00 0.00 0.00 0.00 0.00 0.00 0.00 0.00 0.00 0.00 0.00 0.00 0.00
0.00 0.00 0.00 0.00 0.00 0.00 0.00 0.00 0.00 0.00 0.00 0.00 0.00 0.00 0.00 0.00 0.00 0.00 0.00 0.00 0.00 0.00 0.00 0.00 0.00 0.00 0.00 0.00 0.00 0.00 0.00 0.00 0.00 0.00 0.00 0.00 0.00 0.00 0.00 0.00 0.00 0.00 0.00 0.00 0.00
0.00 0.00 0.00 0.00 0.00 0.00 0.00 0.00 0.00 0.00 0.00 0.00 0.00 0.00 0.00 0.00 0.00 0.00 0.00 0.00 0.00 0.00 0.00 0.00 0.00 0.00 0.00 0.00 0.00 0.00 0.01 0.02 0.01 0.00 0.00 0.00 0.00 0.00 0.00 0.00 0.00 0.00 0.00 0.00 0.00
0.00 0.00 0.00 0.00 0.00 0.00 0.00 0.00 0.00 0.00 0.00 0.00 0.00 0.00 0.00 0.00 0.00 0.00 0.00 0.00 0.00 0.00 0.00 0.00 0.00 0.00 0.01 0.00 0.00 0.00 0.00 0.03 0.03 0.00 0.00 0.00 0.00 0.00 0.00 0.00 0.00 0.00 0.00 0.00 0.00
0.00 0.00 0.00 0.00 0.00 0.00 0.00 0.00 0.00 0.00 0.00 0.00 0.00 0.00 0.00 0.00 0.00 0.00 0.00 0.00 0.00 0.00 0.00 0.01 0.01 0.00 0.00 0.00 0.00 0.00 0.00 0.00 0.02 0.00 0.01 0.00 0.00 0.00 0.00 0.00 0.00 0.00 0.00 0.00 0.00
0.00 0.00 0.00 0.00 0.00 0.00 0.00 0.00 0.00 0.00 0.00 0.00 0.00 0.00 0.00 0.00 0.00 0.00 0.00 0.00 0.00 0.00 0.00 0.00 0.03 0.00 0.00 0.00 0.00 0.00 0.00 0.02 0.04 0.03 0.02 0.00 0.00 0.00 0.00 0.00 0.00 0.00 0.00 0.00 0.00
0.00 0.00 0.00 0.00 0.00 0.00 0.00 0.00 0.00 0.00 0.00 0.00 0.00 0.00 0.00 0.00 0.00 0.00 0.00 0.00 0.00 0.00 0.00 0.00 0.04 0.01 0.00 0.01 0.00 0.00 0.00 0.00 0.04 0.02 0.03 0.00 0.00 0.00 0.00 0.00 0.00 0.00 0.00 0.00 0.00
0.00 0.00 0.00 0.00 0.00 0.00 0.00 0.00 0.00 0.00 0.00 0.00 0.00 0.00 0.00 0.00 0.00 0.00 0.00 0.00 0.00 0.00 0.00 0.02 0.06 0.03 0.00 0.00 0.01 0.00 0.00 0.02 0.05 0.04 0.01 0.00 0.00 0.00 0.00 0.00 0.00 0.00 0.00 0.00 0.00
0.00 0.00 0.00 0.00 0.00 0.00 0.00 0.00 0.00 0.00 0.00 0.00 0.00 0.00 0.00 0.00 0.00 0.00 0.00 0.00 0.00 0.00 0.02 0.04 0.03 0.03 0.01 0.01 0.01 0.01 0.00 0.01 0.02 0.03 0.02 0.02 0.00 0.01 0.01 0.00 0.00 0.00 0.00 0.00 0.00
0.00 0.00 0.00 0.00 0.00 0.00 0.00 0.00 0.00 0.00 0.00 0.00 0.00 0.00 0.00 0.00 0.00 0.00 0.00 0.00 0.00 0.00 0.00 0.02 0.01 0.02 0.02 0.01 0.01 0.00 0.00 0.00 0.01 0.01 0.00 0.00 0.00 0.00 0.00 0.00 0.00 0.00 0.00 0.00 0.00
0.00 0.00 0.00 0.00 0.00 0.00 0.00 0.00 0.00 0.00 0.00 0.00 0.00 0.00 0.00 0.00 0.00 0.00 0.00 0.00 0.00 0.00 0.00 0.02 0.02 0.02 0.00 0.00 0.00 0.00 0.00 0.00 0.00 0.00 0.01 0.00 0.00 0.00 0.00 0.00 0.00 0.00 0.00 0.00 0.00
0.00 0.00 0.00 0.00 0.00 0.00 0.00 0.00 0.00 0.00 0.00 0.00 0.00 0.00 0.00 0.00 0.00 0.00 0.00 0.00 0.00 0.00 0.02 0.04 0.02 0.03 0.00 0.00 0.00 0.00 0.00 0.00 0.00 0.00 0.00 0.00 0.00 0.00 0.00 0.00 0.00 0.00 0.00 0.00 0.00
0.00 0.00 0.00 0.00 0.00 0.00 0.00 0.00 0.00 0.00 0.00 0.00 0.00 0.00 0.00 0.00 0.00 0.00 0.00 0.00 0.00 0.00 0.02 0.01 0.02 0.02 0.01 0.01 0.01 0.00 0.00 0.00 0.00 0.00 0.00 0.01 0.00 0.00 0.00 0.00 0.00 0.00 0.00 0.00 0.00
MSLP
1020.14 1019.71 1019.29 1018.91 1018.52 1018.16 1017.78 1017.39 1016.99 1016.65 1016.33 1016.00 1015.60 1015.14 1014.78 1014.45 1013.89 1012.52 1011.56 1011.00 1010.82 1010.75 1010.52 1009.53 1008.76 1007.80 1007.50 1007.08 1006.57 1006.09 1005.04 1002.97 1001.87 1000.98 1000.14 999.12 998.35 998.04 997.76 997.50 996.89 996.57 996.64 997.25 997.14
1020.17 1019.68 1019.25 1018.83 1018.42 1018.05 1017.67 1017.26 1016.87 1016.51 1016.09 1015.68 1015.32 1015.00 1014.62 1014.41 1013.53 1011.41 1010.88 1010.73 1010.53 1010.61 1009.92 1008.53 1007.82 1007.38 1006.95 1006.26 1006.17 1005.50 1004.10 1002.56 1001.87 1000.81 999.76 998.96 998.45 998.17 997.87 997.49 997.26 997.14 997.08 997.59 997.93
1020.24 1019.71 1019.20 1018.74 1018.36 1017.98 1017.60 1017.22 1016.81 1016.34 1015.80 1015.33 1014.98 1014.67 1014.50 1014.16 1011.93 1010.24 1010.72 1010.51 1010.34 1010.43 1009.95 1008.71 1007.69 1007.06 1006.01 1005.69 1005.14 1004.73 1002.69 1002.85 1001.66 1000.74 1000.18 999.59 998.82 998.70 998.52 997.61 997.00 996.83 997.03 997.16 997.62
1020.27 1019.74 1019.25 1018.75 1018.28 1017.84 1017.41 1017.00 1016.56 1016.04 1015.54 1015.14 1014.76 1014.26 1014.13 1013.55 1010.33 1009.91 1010.22 1010.13 1010.10 1010.03 1009.17 1008.01 1007.18 1006.57 1005.79 1005.02 1004.45 1003.78 1002.99 1002.68 1001.79 1001.01 1000.32 999.84 999.24 998.39 998.80 998.28 997.37 997.01 996.83 996.77 997.30
1020.32 1019.77 1019.23 1018.68 1018.17 1017.69 1017.17 1016.68 1016.15 1015.60 1015.08 1014.69 1014.52 1014.15 1013.26 1011.19 1008.72 1009.27 1009.52 1009.49 1009.21 1008.52 1007.90 1007.08 1006.49 1005.86 1005.07 1004.56 1004.13 1002.76 1002.45 1001.96 1001.51 1000.89 1000.31 1000.09 999.39 999.09 998.68 998.83 998.20 997.47 996.79 996.53 997.06
1020.28 1019.72 1019.17 1018.59 1017.98 1017.41 1016.90 1016.43 1015.97 1015.46 1014.96 1014.50 1014.29 1014.07 1012.96 1009.49 1008.08 1008.18 1008.38 1008.01 1007.64 1007.55 1007.33 1006.83 1006.23 1005.84 1005.12 1004.35 1003.35 1002.90 1002.07 1001.27 1000.78 1000.15 1000.03 999.61 999.08 999.29 998.44 998.87 998.54 997.90 997.08 997.14 997.80
1020.17 1019.65 1019.10 1018.47 1017.79 1017.09 1016.57 1016.11 1015.63 1015.03 1014.42 1014.04 1014.00 1013.51 1011.13 1008.41 1008.05 1007.88 1007.57 1007.49 1007.25 1007.61 1007.34 1006.92 1006.73 1006.58 1005.67 1004.71 1003.57 1003.31 1002.20 1001.38 1000.15 999.58 999.00 999.62 998.76 997.54 998.28 998.61 998.66 998.43 997.59 996.98 997.23
1019.97 1019.47 1018.89 1018.28 1017.63 1016.92 1016.21 1015.62 1015.13 1014.62 1013.99 1013.72 1013.72 1012.95 1009.72 1008.00 1007.97 1007.49 1007.51 1007.07 1006.98 1006.98 1006.94 1007.05 1007.18 1006.79 1006.35 1005.60 1004.20 1003.58 1002.54 1000.86 999.31 1000.17 998.63 999.58 997.09 997.19 997.93 997.83 997.82 998.41 997.95 997.23 996.95
1019.79 1019.23 1018.59 1017.90 1017.25 1016.61 1015.93 1015.31 1014.79 1014.10 1013.73 1013.57 1013.30 1011.74 1008.15 1008.02 1007.77 1007.78 1007.54 1007.14 1007.10 1006.81 1006.60 1006.44 1006.79 1006.61 1006.12 1005.28 1004.25 1003.25 1001.82 1000.89 999.63 999.18 998.59 998.91 997.33 996.72 997.18 997.05 997.00 997.41 997.62 997.46 996.98
1019.48 1018.94 1018.30 1017.62 1016.84 1016.11 1015.39 1014.31 1013.71 1013.83 1013.28 1012.51 1011.54 1010.31 1007.94 1007.31 1007.64 1007.74 1007.15 1007.14 1007.01 1006.69 1006.32 1005.62 1005.52 1005.41 1004.80 1004.27 1002.85 1002.24 1001.21 1000.31 999.21 999.04 998.64 997.77 996.71 995.96 996.32 996.62 996.30 996.47 996.57 996.66 996.78
1019.38 1018.67 1017.95 1017.22 1016.48 1015.79 1014.90 1012.91 1013.02 1012.90 1011.67 1009.82 1008.88 1008.15 1007.62 1007.58 1007.68 1007.22 1006.65 1006.99 1006.48 1006.27 1005.58 1005.17 1004.84 1004.18 1003.48 1003.04 1002.54 1002.30 1001.63 1000.59 999.85 999.39 998.90 997.91 996.65 995.17 995.14 995.39 995.46 995.56 995.74 995.89 995.83
1019.21 1018.45 1017.63 1016.84 1016.09 1015.42 1015.23 1012.38 1011.69 1011.45 1010.23 1008.88 1008.20 1008.01 1007.86 1007.82 1007.54 1006.70 1006.78 1006.97 1006.56 1006.11 1005.72 1005.13 1004.16 1003.63 1003.34 1003.15 1003.02 1002.84 1002.37 1001.66 1001.19 1000.89 1000.30 998.52 997.17 995.59 994.79 994.26 994.26 994.46 994.89 995.33 995.57
1018.85 1017.99 1017.18 1016.46 1015.71 1014.82 1012.90 1011.87 1011.49 1010.93 1010.26 1007.70 1007.52 1007.33 1007.06 1007.25 1007.05 1006.68 1006.91 1006.92 1006.62 1006.33 1005.85 1005.33 1004.84 1004.39 1003.97 1003.43 1003.07 1002.85 1002.66 1002.20 1001.78 1001.44 1001.01 999.74 998.05 996.57 995.10 994.50 993.88 993.69 993.52 994.10 994.78
1018.60 1017.70 1016.90 1016.19 1015.83 1012.04 1011.30 1011.47 1011.08 1011.27 1009.86 1007.70 1007.12 1006.75 1007.00 1006.86 1006.16 1006.53 1006.71 1007.21 1007.04 1006.54 1006.11 1005.70 1005.11 1004.53 1004.12 1003.72 1003.67 1002.69 1002.86 1002.37 1002.05 1001.76 1000.86 1000.49 998.17 997.03 995.83 994.71 994.02 993.76 993.41 992.99 993.49
1018.35 1017.42 1016.64 1016.50 1014.55 1011.71 1011.81 1011.41 1011.47 1011.37 1009.00 1007.16 1006.41 1006.99 1006.93 1006.80 1006.36 1005.89 1006.41 1006.81 1006.52 1006.11 1006.01 1005.18 1004.61 1004.45 1004.19 1003.80 1003.47 1002.86 1002.82 1002.81 1002.64 1002.09 1001.48 1000.56 999.31 996.70 996.81 994.63 993.76 993.46 993.19 992.58 992.61
1018.02 1017.17 1016.55 1014.69 1014.05 1011.84 1011.47 1011.56 1011.37 1010.50 1007.72 1006.53 1006.48 1006.25 1006.06 1005.69 1005.52 1005.67 1005.75 1005.86 1005.30 1005.00 1004.79 1004.43 1004.50 1004.63 1004.59 1004.94 1004.77 1004.41 1003.92 1003.37 1003.04 1002.63 1001.15 1000.40 999.84 997.02 996.53 995.20 993.82 992.71 992.21 992.01 992.09
1017.45 1016.73 1016.47 1014.67 1012.28 1011.76 1011.75 1011.14 1010.39 1008.38 1007.32 1006.50 1006.42 1006.43 1006.25 1005.64 1005.40 1005.30 1005.57 1005.09 1004.59 1004.38 1004.46 1004.51 1004.48 1005.29 1006.00 1005.82 1005.24 1004.64 1005.11 1004.78 1003.84 1002.46 1000.70 1000.13 999.16 997.22 996.29 995.23 994.07 992.58 991.49 990.97 991.10
1016.85 1016.01 1014.68 1013.84 1012.48 1012.30 1011.99 1011.17 1009.58 1007.82 1007.15 1007.35 1007.28 1006.95 1005.69 1005.09 1005.27 1005.41 1005.18 1004.66 1004.55 1004.95 1005.25 1005.41 1004.90 1005.28 1006.65 1006.97 1006.18 1005.76 1004.54 1004.56 1003.79 1003.20 1000.89 999.68 998.46 997.78 996.29 995.10 993.78 992.52 991.45 991.14 991.03
1016.47 1013.96 1013.72 1012.57 1012.71 1012.66 1012.27 1010.59 1008.95 1008.32 1008.44 1008.46 1007.99 1006.64 1005.87 1005.56 1005.62 1005.46 1005.16 1005.01 1005.43 1005.94 1006.90 1006.57 1005.94 1006.02 1005.84 1005.30 1005.02 1004.41 1004.20 1004.20 1003.88 1002.99 1002.02 1000.81 998.77 998.04 996.32 994.90 993.58 992.49 991.51 990.84 990.76
1016.53 1013.94 1012.26 1012.38 1012.64 1012.85 1012.13 1010.48 1009.12 1008.76 1009.23 1009.16 1008.61 1007.69 1007.40 1006.94 1006.52 1006.24 1005.92 1005.79 1006.37 1007.18 1008.26 1008.18 1006.51 1006.49 1005.68 1005.14 1005.09 1004.67 1004.18 1003.81 1003.84 1003.67 1002.36 1000.10 998.47 997.46 996.63 995.42 993.92 992.51 991.46 991.26 991.00
1015.63 1012.79 1012.48 1012.58 1012.67 1012.40 1011.68 1010.35 1009.36 1009.45 1009.88 1009.77 1009.24 1009.08 1008.57 1008.08 1007.72 1007.45 1007.12 1006.71 1007.32 1007.77 1007.81 1007.69 1007.93 1006.96 1006.11 1004.84 1004.14 1004.15 1003.17 1003.28 1003.73 1004.64 1003.36 1000.42 997.84 997.21 998.73 997.43 996.35 993.07 992.05 991.42 991.06
1015.28 1012.50 1012.43 1012.40 1012.19 1011.50 1010.87 1010.27 1010.40 1009.89 1009.87 1009.60 1009.50 1009.52 1009.25 1009.01 1008.79 1008.55 1008.05 1007.63 1007.83 1007.97 1008.11 1008.58 1008.71 1007.46 1006.33 1005.42 1005.38 1004.78 1003.08 1003.75 1004.13 1003.12 1002.17 1000.54 997.82 998.50 999.10 999.55 999.18 996.31 992.97 991.52 991.71
1015.50 1012.89 1012.41 1012.41 1011.86 1011.49 1011.19 1010.41 1009.82 1009.95 1009.98 1009.88 1009.88 1009.75 1009.72 1009.36 1009.02 1008.95 1008.59 1008.35 1008.84 1008.73 1009.09 1009.75 1008.87 1008.00 1006.15 1005.56 1005.96 1005.68 1004.37 1003.70 1003.56 1003.44 1002.04 1000.93 998.42 999.46 1000.70 1000.94 1000.54 998.42 995.50 992.89 992.47
1016.39 1013.42 1012.09 1011.77 1011.89 1011.90 1011.35 1010.81 1009.98 1009.72 1009.85 1010.04 1009.95 1009.75 1009.31 1009.21 1008.95 1008.61 1008.29 1008.36 1008.88 1009.02 1009.33 1009.44 1009.04 1008.68 1007.47 1006.19 1005.20 1005.34 1004.77 1003.49 1002.41 1001.91 1000.75 999.74 999.34 1000.15 1002.69 1003.46 1002.33 1000.27 996.74 993.13 992.77
1017.05 1015.07 1014.62 1013.38 1013.06 1012.95 1012.32 1011.34 1010.25 1009.73 1009.72 1009.85 1009.83 1009.48 1009.12 1008.94 1008.68 1008.57 1008.23 1008.33 1008.63 1008.88 1008.68 1008.98 1008.50 1007.96 1006.85 1005.83 1004.79 1003.49 1002.85 1001.51 1000.69 1000.02 999.42 999.00 998.79 998.88 1000.64 1002.48 1002.01 999.92 997.79 994.70 993.02
1018.52 1017.80 1016.69 1015.47 1014.20 1013.21 1011.98 1011.28 1010.37 1010.24 1010.75 1010.52 1010.38 1009.81 1009.69 1009.54 1008.86 1007.95 1007.95 1008.15 1008.33 1008.63 1008.43 1008.91 1008.40 1007.74 1006.43 1005.68 1004.34 1003.14 1002.55 1001.56 999.43 999.00 998.69 998.41 998.45 998.43 997.84 998.98 999.56 997.85 996.68 994.44 993.10
1019.95 1018.75 1018.65 1016.63 1014.32 1012.94 1012.02 1011.95 1011.53 1011.42 1011.51 1010.86 1010.44 1010.32 1009.75 1008.96 1008.33 1007.95 1007.86 1007.66 1007.71 1008.06 1008.15 1008.66 1008.46 1008.11 1006.32 1005.24 1004.83 1003.81 1003.08 1001.56 1000.67 999.01 998.65 999.04 999.27 999.22 998.21 998.26 997.48 996.91 994.98 993.78 993.22
Thickness
5589 5591 5593 5595 5597 5600 5602 5604 5608 5611 5614 5618 5624 5630 5636 5640 5647 5662 5670 5682 5686 5690 5696 5705 5711 5722 5726 5722 5732 5737 5712 5723 5746 5757 5770 5798 5796 5816 5829 5819 5834 5845 5846 5848 5860
5584 5587 5590 5592 5595 5597 5600 5603 5606 5609 5613 5618 5622 5626 5631 5635 5645 5664 5674 5677 5682 5684 5690 5700 5703 5711 5708 5717 5719 5716 5713 5728 5761 5771 5774 5791 5796 5801 5802 5809 5816 5826 5841 5845 5848
5579 5582 5586 5588 5591 5594 5597 5600 5603 5607 5612 5617 5621 5625 5628 5632 5652 5669 5668 5673 5677 5680 5685 5694 5702 5702 5704 5712 5716 5716 5717 5739 5754 5768 5775 5777 5785 5797 5788 5789 5814 5817 5828 5841 5841
5575 5578 5581 5584 5587 5590 5594 5597 5601 5606 5610 5615 5619 5624 5627 5633 5655 5667 5666 5669 5672 5675 5682 5689 5694 5689 5691 5695 5714 5703 5726 5732 5745 5758 5760 5759 5779 5778 5779 5788 5815 5826 5836 5839 5832
5572 5575 5578 5581 5584 5587 5591 5595 5600 5605 5610 5614 5616 5620 5631 5644 5661 5666 5667 5669 5673 5680 5682 5684 5685 5690 5686 5697 5703 5710 5722 5731 5738 5745 5752 5759 5760 5764 5774 5791 5808 5815 5825 5831 5825
5570 5572 5575 5578 5582 5586 5589 5593 5597 5602 5607 5612 5613 5616 5625 5643 5667 5669 5669 5674 5677 5677 5677 5682 5682 5688 5686 5691 5700 5711 5717 5724 5734 5740 5745 5743 5752 5756 5777 5788 5791 5798 5808 5812 5807
5569 5570 5573 5576 5581 5586 5589 5592 5595 5600 5606 5609 5610 5615 5631 5648 5662 5665 5670 5669 5675 5669 5665 5674 5677 5672 5679 5678 5702 5697 5693 5708 5726 5738 5740 5741 5728 5745 5775 5776 5772 5780 5794 5807 5807
5568 5569 5571 5574 5578 5583 5588 5592 5596 5599 5604 5607 5607 5612 5627 5656 5657 5660 5662 5664 5669 5669 5667 5669 5668 5664 5662 5672 5677 5675 5685 5685 5731 5718 5740 5721 5713 5755 5768 5766 5765 5767 5779 5793 5801
5568 5570 5572 5575 5578 5582 5587 5591 5594 5599 5601 5602 5605 5614 5631 5651 5645 5650 5654 5650 5655 5660 5663 5666 5658 5650 5653 5649 5654 5668 5661 5674 5698 5724 5723 5709 5708 5750 5762 5761 5759 5762 5769 5777 5789
5569 5571 5573 5576 5580 5584 5589 5596 5598 5597 5601 5605 5613 5612 5634 5634 5640 5642 5651 5648 5642 5645 5646 5651 5649 5641 5648 5645 5641 5653 5664 5677 5683 5710 5707 5705 5710 5743 5752 5748 5752 5757 5763 5769 5775
5568 5571 5574 5578 5581 5585 5590 5603 5604 5599 5605 5616 5622 5623 5628 5636 5638 5636 5646 5637 5640 5636 5629 5640 5631 5630 5644 5652 5658 5651 5652 5659 5678 5692 5681 5687 5704 5730 5747 5746 5744 5751 5755 5758 5768
5567 5570 5575 5579 5582 5585 5584 5604 5603 5603 5600 5620 5623 5622 5625 5626 5615 5629 5636 5620 5621 5614 5625 5625 5622 5638 5644 5642 5637 5633 5627 5635 5649 5659 5654 5672 5676 5715 5733 5741 5746 5747 5748 5753 5759
5568 5572 5576 5580 5583 5589 5600 5602 5605 5606 5594 5619 5622 5619 5622 5622 5612 5616 5620 5613 5608 5604 5608 5603 5611 5623 5620 5620 5619 5620 5615 5620 5620 5634 5637 5649 5650 5681 5717 5728 5740 5743 5754 5755 5754
5567 5572 5576 5580 5582 5609 5606 5604 5604 5600 5588 5606 5612 5618 5617 5617 5609 5620 5617 5602 5593 5588 5593 5591 5603 5601 5601 5601 5603 5597 5616 5614 5611 5610 5603 5632 5617 5659 5691 5705 5715 5727 5739 5752 5755
5564 5570 5576 5574 5589 5603 5599 5601 5598 5592 5572 5611 5613 5620 5612 5603 5606 5606 5609 5593 5580 5583 5583 5580 5586 5581 5580 5591 5599 5594 5605 5598 5596 5594 5595 5605 5602 5649 5668 5683 5701 5715 5727 5743 5749
5561 5567 5572 5584 5586 5600 5600 5597 5592 5576 5580 5604 5609 5602 5600 5605 5603 5600 5595 5597 5595 5585 5589 5586 5594 5583 5575 5574 5576 5582 5579 5585 5587 5586 5574 5597 5595 5624 5643 5665 5688 5713 5723 5734 5740
5563 5567 5568 5578 5592 5596 5594 5591 5577 5584 5609 5602 5597 5598 5593 5591 5593 5591 5581 5581 5581 5573 5575 5582 5579 5568 5561 5554 5566 5572 5548 5531 5541 5561 5571 5598 5595 5608 5644 5658 5676 5699 5725 5734 5739
5566 5571 5577 5580 5589 5588 5585 5578 5572 5599 5600 5599 5591 5589 5591 5598 5589 5582 5580 5581 5593 5579 5564 5550 5548 5561 5547 5537 5541 5543 5561 5548 5531 5541 5577 5601 5589 5591 5629 5651 5672 5694 5713 5721 5727
5568 5584 5580 5587 5583 5582 5573 5569 5578 5586 5586 5577 5579 5584 5588 5592 5585 5580 5580 5579 5575 5567 5540 5539 5539 5553 5554 5560 5560 5560 5553 5567 5550 5563 5555 5570 5595 5599 5626 5642 5661 5683 5702 5710 5719
5566 5580 5589 5585 5581 5573 5567 5568 5582 5589 5578 5570 5559 5574 5561 5568 5568 5566 5567 5576 5556 5553 5537 5524 5524 5539 5547 5556 5553 5552 5566 5550 5552 5536 5541 5573 5584 5590 5612 5627 5654 5674 5690 5694 5708
5573 5587 5585 5580 5576 5569 5558 5572 5581 5579 5569 5558 5556 5552 5555 5553 5556 5552 5554 5563 5551 5541 5539 5533 5518 5526 5540 5550 5555 5548 5562 5566 5556 5524 5524 5556 5587 5617 5584 5604 5611 5666 5684 5694 5692
5575 5581 5584 5581 5568 5572 5568 5573 5565 5567 5566 5560 5557 5550 5546 5545 5540 5538 5540 5547 5548 5541 5526 5524 5511 5515 5529 5547 5539 5544 5561 5548 5519 5540 5559 5567 5579 5587 5587 5585 5585 5620 5675 5682 5684
5575 5585 5585 5577 5561 5563 5567 5569 5571 5561 5554 5551 5544 5547 5544 5538 5531 5533 5537 5544 5534 5529 5518 5510 5514 5508 5530 5539 5524 5521 5545 5551 5548 5539 5539 5545 5570 5580 5561 5564 5570 5585 5637 5662 5668
5569 5575 5584 5582 5575 5562 5559 5558 5560 5563 5554 5548 5542 5544 5543 5536 5540 5534 5537 5538 5532 5527 5522 5517 5513 5506 5508 5523 5537 5519 5525 5540 5551 5537 5553 5563 5560 5559 5536 5535 5551 5564 5602 5652 5662
5564 5568 5563 5560 5556 5551 5552 5553 5554 5552 5554 5547 5539 5540 5539 5532 5533 5529 5535 5533 5531 5528 5527 5518 5515 5520 5528 5534 5540 5546 5546 5560 5553 5562 5567 5570 5564 5570 5547 5534 5552 5567 5591 5623 5652
5547 5544 5546 5546 5551 5550 5556 5551 5553 5549 5535 5529 5525 5532 5529 5521 5527 5531 5535 5529 5525 5525 5524 5519 5512 5520 5525 5533 5542 5546 5549 5554 5572 5578 5581 5582 5578 5583 5582 5566 5567 5585 5598 5627 5646
5534 5538 5527 5535 5554 5556 5554 5544 5539 5535 5528 5529 5527 5521 5521 5529 5536 5537 5537 5537 5535 5524 5522 5516 5516 5511 5520 5534 5531 5531 5539 5552 5548 5577 5574 5555 5560 5567 5581 5579 5583 5589 5613 5627 5639